Theta_e
299 302 305 312 313 314 316 316 316 315 314 313 313 313 309 303 301 298 301 300 307 311 311 311 310 312 313 314 320 321 324 327 327 327 325 326 325 328 330 334 333 331 330 327 326 328 331 332 338 344 338 336 334 334
299 299 301 307 313 315 316 316 316 315 314 313 313 312 310 304 302 298 301 305 308 309 311 311 307 306 307 310 310 316 324 327 326 326 326 328 327 331 333 332 333 337 336 338 340 340 333 332 332 331 332 334 334 334
298 299 300 303 313 314 315 316 315 313 313 312 312 312 312 309 302 299 298 299 305 310 311 312 312 311 311 310 310 314 320 322 326 324 327 329 330 331 332 331 334 335 332 337 338 335 331 330 331 331 331 332 332 330
298 298 299 301 312 313 315 315 314 313 312 312 312 312 311 310 306 300 298 298 303 309 313 313 312 315 312 312 312 313 316 318 319 322 326 328 328 328 331 331 332 331 332 331 331 329 328 330 330 330 331 331 331 331
298 298 298 299 302 313 314 316 315 313 312 312 312 311 311 310 307 308 300 299 299 305 314 313 312 315 314 313 314 317 317 317 318 321 322 325 326 328 329 330 330 327 329 328 328 328 328 329 330 331 330 330 331 332
298 298 298 298 300 303 312 314 315 314 313 313 311 311 311 311 306 307 301 305 299 304 310 316 316 316 314 315 316 317 316 316 317 318 320 321 320 324 328 330 329 327 326 327 328 328 329 329 329 330 330 329 330 332
298 298 298 299 299 301 307 313 315 314 313 312 311 310 310 310 309 304 304 305 306 303 310 315 318 316 315 316 316 316 315 316 316 318 319 320 321 323 325 328 326 327 327 328 328 327 326 327 326 328 327 330 331 331
298 298 298 299 299 299 304 311 313 314 312 311 310 310 310 308 309 308 303 299 301 307 308 315 319 317 315 316 317 315 315 316 317 317 317 319 319 321 323 326 326 327 328 326 327 327 325 326 328 328 326 328 330 330
295 296 296 297 298 300 302 306 311 313 312 310 310 309 306 306 309 304 307 301 302 305 311 315 318 318 315 317 317 316 317 318 318 318 317 317 318 319 326 326 326 326 327 327 326 326 326 327 325 325 326 328 326 327
295 295 295 296 296 299 301 306 311 312 310 309 307 305 303 301 304 302 302 308 305 305 308 312 316 319 316 317 316 318 318 320 320 320 318 319 321 325 324 325 325 325 325 325 325 325 324 324 326 325 325 325 327 327
295 295 295 295 296 299 306 310 311 310 309 307 305 304 302 301 304 309 310 309 309 310 309 311 314 319 316 319 319 319 320 320 320 321 321 322 323 325 324 325 325 326 325 324 324 323 324 325 325 325 326 325 325 323
295 295 295 295 296 303 307 310 310 309 308 307 306 304 306 307 308 310 310 310 310 309 309 311 314 317 317 319 320 320 321 321 321 320 321 320 328 325 324 324 325 326 325 325 325 325 324 324 324 325 325 324 324 325
296 294 294 294 297 305 306 307 308 309 308 305 306 306 308 308 311 310 311 312 312 311 311 311 316 317 318 320 321 321 321 320 320 321 320 322 326 324 324 324 324 325 325 325 325 325 324 325 324 324 325 325 325 324
294 294 293 293 298 304 306 309 307 307 306 306 307 309 310 310 311 311 312 312 312 313 311 312 315 319 319 320 320 320 321 320 320 319 320 323 325 324 324 324 323 323 323 324 325 324 324 325 325 325 325 324 323 323
294 294 293 293 297 304 307 308 308 305 306 307 308 313 310 310 311 311 312 312 312 313 310 315 316 318 320 320 320 320 320 319 318 319 322 323 324 324 324 324 324 323 323 323 323 323 323 323 324 324 324 323 322 319
299 294 293 293 296 303 307 306 304 305 305 306 309 311 310 310 310 310 311 312 312 313 311 315 318 318 318 318 319 318 317 318 319 320 322 324 324 324 323 323 323 322 320 317 320 321 321 322 322 323 322 321 318 317
299 298 294 293 297 302 305 303 303 304 305 308 311 310 311 311 310 311 311 312 313 314 313 316 317 318 319 318 317 318 318 320 320 322 323 323 322 322 323 322 322 321 320 319 319 320 321 322 322 322 321 318 316 316
300 300 296 296 300 302 303 302 304 303 307 309 311 310 310 310 312 312 313 315 314 315 315 317 318 318 317 317 318 321 321 320 321 322 321 322 322 322 322 322 321 320 319 320 320 321 321 321 321 321 317 316 315 315
301 299 298 299 303 302 302 302 302 306 309 310 310 309 311 314 314 315 316 315 318 319 318 317 319 318 319 321 321 321 320 320 320 320 321 322 322 322 322 322 321 320 320 320 320 320 321 320 320 320 318 318 316 315
299 298 298 302 302 304 304 303 304 306 312 312 311 313 315 316 316 317 317 318 318 317 318 319 320 320 320 320 321 320 320 319 319 319 320 320 320 322 322 322 321 320 319 320 320 318 320 320 319 320 318 318 318 315
301 301 301 303 303 303 303 307 307 309 312 313 312 312 314 315 317 317 317 318 318 318 319 319 319 320 320 320 321 321 321 321 320 320 321 321 320 319 321 321 320 319 317 320 320 320 319 319 319 319 318 318 318 317
302 302 302 301 301 303 308 308 310 311 311 313 313 315 317 317 316 316 317 317 318 318 319 319 320 320 320 320 320 321 320 319 316 316 314 317 318 319 319 318 318 317 318 320 320 321 321 320 319 318 317 317 316 315
301 301 302 303 306 309 309 310 312 314 317 316 316 316 317 316 316 316 317 317 318 318 318 319 321 321 320 320 320 319 319 320 319 318 318 317 318 318 318 318 319 319 319 319 320 319 318 318 317 316 315 314 314 314
303 304 308 309 308 309 310 310 312 314 315 316 316 317 317 316 316 316 318 317 318 319 317 317 318 318 319 317 319 319 319 319 318 318 318 318 318 319 317 319 319 319 318 319 319 318 317 317 315 316 316 317 316 315
307 307 308 307 308 310 312 314 314 315 316 316 316 317 316 315 316 317 318 317 317 318 318 319 318 317 317 317 318 318 316 318 319 319 319 318 319 318 316 318 316 317 317 318 318 317 316 316 316 316 316 315 315 315
312 311 312 311 312 313 314 315 315 315 316 316 316 316 315 314 315 317 317 318 318 319 318 319 318 318 318 317 317 318 318 318 319 319 318 318 318 317 316 316 316 315 315 315 315 316 316 315 315 315 315 315 314 313
312 314 312 311 312 314 315 315 315 316 315 315 315 315 315 315 317 318 318 318 319 319 319 318 318 317 317 317 318 318 317 318 318 318 317 317 315 316 316 315 315 315 316 316 316 316 316 315 315 315 315 315 314 314
311 313 315 314 315 315 316 317 317 317 316 316 315 316 316 316 318 318 318 318 318 318 318 318 318 317 318 318 318 318 317 318 318 317 317 317 317 316 317 316 316 316 316 316 315 315 315 315 314 315 314 315 314 313
312 312 314 315 315 316 316 316 316 316 316 316 316 317 316 317 317 317 317 316 316 317 317 317 318 317 318 318 318 318 318 318 318 317 317 316 316 316 317 316 316 316 315 316 316 315 315 315 314 314 314 314 314 314
313 312 313 314 315 316 315 316 316 316 315 316 316 316 316 316 317 317 318 318 318 317 317 317 317 317 317 317 317 318 318 317 315 317 316 316 316 315 316 318 318 317 317 317 316 316 315 313 313 314 314 314 314 313
313 313 314 314 314 314 314 315 316 316 316 316 316 316 316 317 316 316 317 317 316 316 318 318 318 317 318 317 318 317 316 316 318 318 318 317 316 316 316 316 317 316 313 315 315 314 314 314 315 316 316 315 315 314
314 315 314 315 314 316 316 317 317 317 317 316 316 316 315 316 317 314 315 316 316 316 315 316 316 316 316 315 315 315 315 316 315 315 315 314 315 315 317 317 315 316 315 314 313 314 314 314 313 313 312 313 315 316
315 315 315 316 316 315 315 315 315 316 316 316 317 317 317 315 315 316 317 317 317 316 316 316 317 317 317 317 317 317 316 317 317 315 314 315 314 314 314 314 314 314 314 314 315 315 314 314 314 313 312 311 312 313
Wind_Speed
11 10 9 9 10 10 12 14 15 14 13 12 11 10 9 7 5 5 5 6 5 8 16 12 9 9 11 6 4 11 6 2 2 1 3 2 3 1 5 3 3 4 4 5 5 8 8 3 4 4 5 3 7 8
11 10 10 8 9 9 12 14 13 15 13 13 12 10 9 8 5 5 2 4 6 8 11 15 19 18 17 14 10 4 4 4 6 3 3 2 4 3 5 4 3 3 4 3 5 4 7 7 9 6 5 5 8 8
9 9 8 8 9 10 9 12 14 13 14 15 13 12 10 10 6 5 5 6 7 10 17 12 6 4 5 6 10 5 1 5 4 3 4 2 4 4 5 3 2 3 1 2 5 5 7 7 8 8 8 8 8 9
9 8 6 7 9 10 10 11 11 11 14 14 12 13 12 11 9 5 6 6 4 6 6 0 2 4 6 6 6 8 8 6 4 3 3 3 3 1 1 3 4 5 6 3 10 9 9 6 6 6 6 7 7 7
9 7 6 6 8 13 13 13 13 12 13 13 12 12 12 11 10 7 10 9 8 4 7 11 13 6 6 8 6 5 4 5 6 6 4 1 2 3 0 3 7 1 5 3 4 6 7 8 7 6 6 6 7 9
10 8 8 7 7 10 15 15 13 14 14 13 12 11 12 11 8 4 3 4 8 9 5 4 3 4 6 7 6 4 3 4 6 5 1 2 0 4 5 2 4 6 7 5 6 8 11 6 6 5 5 7 9 10
10 9 9 8 7 7 12 16 14 15 16 16 13 10 10 10 10 4 2 5 4 7 4 6 4 6 8 6 5 5 3 3 4 2 3 1 3 3 3 3 6 6 7 8 8 8 7 4 3 5 6 7 9 8
10 10 10 8 8 7 9 14 16 14 15 15 13 11 10 8 9 9 9 9 6 4 5 4 3 6 10 8 6 5 5 4 3 1 4 5 4 3 2 6 4 5 5 6 4 2 3 2 3 3 3 3 3 5
10 9 9 9 8 8 9 14 16 14 16 17 13 10 5 4 5 5 13 8 7 7 6 4 4 5 11 5 2 5 3 4 2 3 3 3 4 4 6 4 3 2 3 4 1 0 3 4 1 1 0 0 2 3
10 9 9 9 8 7 9 16 16 17 18 18 14 5 3 4 7 2 4 2 4 7 7 7 7 4 11 10 8 5 4 2 5 3 3 4 3 4 4 3 3 2 2 3 3 3 2 2 1 1 1 1 1 3
11 10 10 9 9 9 10 16 18 22 23 19 7 5 8 8 6 3 4 5 7 5 9 9 11 4 8 8 6 4 3 3 4 5 3 4 5 9 6 5 5 5 5 4 3 1 0 1 1 1 1 2 1 3
12 12 11 10 11 12 15 16 20 26 19 15 9 13 10 5 5 5 5 6 6 5 8 8 10 7 6 3 6 5 3 3 2 7 4 3 6 9 8 6 5 4 4 3 2 1 2 3 2 2 3 2 2 1
15 14 12 13 15 17 18 18 18 20 19 21 5 5 6 6 5 6 12 7 6 6 8 10 7 8 4 4 1 4 5 3 6 4 4 3 10 9 7 5 4 3 3 3 2 2 3 3 2 2 2 2 1 2
15 15 14 15 20 21 20 21 21 26 16 5 7 5 7 6 7 6 8 10 7 4 12 15 10 5 4 4 2 4 2 4 4 4 5 5 11 10 6 5 5 3 3 3 3 3 4 4 4 4 3 1 0 3
16 16 15 17 23 26 25 22 25 30 6 5 7 6 9 13 7 10 11 5 4 6 15 10 4 5 4 3 3 3 4 4 3 1 3 9 12 10 8 5 5 4 3 2 1 1 1 2 3 3 2 1 1 4
17 18 21 21 26 29 28 28 36 17 7 5 8 7 7 8 11 10 10 12 7 10 13 10 4 4 5 2 6 6 4 4 4 4 9 13 11 10 8 7 5 4 3 1 2 2 2 3 4 4 4 3 3 4
15 16 22 25 28 26 36 32 19 6 6 6 9 14 10 9 7 4 8 12 10 14 8 8 7 5 2 5 4 2 3 4 7 9 11 11 12 11 9 6 5 4 2 4 5 5 6 5 5 6 6 4 2 4
25 21 25 31 30 36 35 13 9 7 8 13 7 5 6 6 6 9 10 11 15 14 12 4 5 5 4 4 3 4 6 6 7 10 10 11 11 8 6 6 6 3 5 5 6 7 8 7 6 6 6 4 3 5
21 29 34 37 42 26 6 9 8 5 13 6 10 5 6 8 10 7 9 16 10 6 11 5 2 3 3 2 6 7 8 9 9 10 10 10 8 6 6 7 6 4 4 5 6 6 7 7 6 8 7 6 6 7
30 32 36 40 34 6 6 6 9 7 7 6 8 6 4 3 6 11 12 12 11 10 4 2 3 5 4 6 6 8 8 9 9 9 7 7 8 8 8 8 7 5 5 6 6 7 6 5 5 6 7 7 9 8
33 32 35 29 18 6 6 7 5 5 5 3 8 3 1 7 12 13 10 9 8 2 5 7 9 8 9 10 9 9 8 6 4 3 4 7 9 9 9 8 7 8 8 8 7 8 8 7 6 7 5 6 8 8
30 28 23 19 6 8 7 4 5 9 6 6 8 7 11 13 13 7 5 10 8 9 9 10 10 10 9 7 6 5 3 2 1 3 5 6 7 8 9 9 9 9 9 8 7 8 9 6 5 6 5 5 8 8
24 17 11 6 3 4 4 4 1 5 8 8 7 6 6 7 5 4 7 8 7 6 9 10 9 8 7 6 4 3 2 1 3 4 5 6 6 6 6 7 8 8 9 8 6 7 8 8 9 8 7 7 7 7
13 6 2 1 4 4 0 3 3 2 6 6 4 5 4 5 5 10 8 9 8 8 9 10 9 7 5 3 2 2 3 4 5 6 6 7 8 6 6 5 5 5 5 5 6 7 10 10 10 8 7 6 6 8
1 3 1 2 1 4 3 2 4 5 6 7 7 5 3 1 3 3 3 5 6 7 8 7 5 2 2 2 2 3 4 2 3 3 4 6 5 3 3 2 2 2 3 5 7 9 11 9 8 8 6 6 7 8
3 4 3 2 2 3 5 4 5 5 6 4 4 3 2 3 3 2 3 4 4 5 4 3 2 0 2 3 4 2 0 2 2 2 4 5 4 4 5 6 7 5 6 7 7 8 7 8 8 7 8 8 10 10
5 7 5 5 4 5 6 7 6 6 6 4 4 2 2 3 3 3 5 4 4 3 3 3 2 4 5 4 2 2 4 3 2 5 5 6 6 3 4 4 3 3 6 6 7 8 8 10 9 9 13 11 10 11
5 7 7 8 9 9 7 6 5 4 4 3 1 3 3 3 3 3 4 3 2 2 2 2 3 3 4 3 2 3 7 5 4 3 4 4 5 4 5 5 6 7 6 7 9 11 13 14 13 13 13 14 14 15
6 6 7 11 9 7 8 5 5 6 6 5 5 4 5 6 6 4 2 2 2 3 4 4 4 5 4 4 3 4 8 7 6 6 4 4 6 2 3 6 7 9 10 11 13 15 13 14 13 14 15 16 14 13
6 7 5 8 8 6 8 7 8 7 7 7 7 7 8 6 4 4 3 3 3 3 4 4 4 4 4 3 1 2 5 7 6 5 4 4 8 8 8 8 8 9 10 11 10 12 14 17 20 20 20 19 19 18
3 5 7 8 6 7 6 6 6 6 6 7 6 7 7 4 7 13 12 6 3 2 2 3 3 2 2 2 3 3 3 0 2 4 5 8 11 13 12 10 9 9 9 8 9 10 11 13 16 20 22 23 24 24
6 5 6 7 8 7 7 6 6 10 12 15 12 8 7 6 8 14 13 12 11 11 10 10 9 8 6 5 2 5 8 9 10 11 11 12 15 12 12 10 15 13 11 13 15 16 16 16 16 17 20 24 25 27
10 11 11 9 5 4 5 4 5 5 6 9 9 7 9 9 4 4 7 8 9 10 8 7 6 8 8 8 9 10 10 9 11 14 16 15 12 14 17 18 14 11 13 13 16 18 20 22 22 21 21 22 23 25
Wind_Direction
273 272 279 264 247 239 229 229 224 226 233 225 225 236 240 270 291 300 279 279 232 273 279 276 279 297 327 359 350 341 286 188 205 171 295 131 248 157 272 19 292 254 243 193 239 242 217 31 136 275 35 51 20 20
272 273 270 268 240 241 225 217 219 221 224 221 225 231 239 255 281 296 311 285 271 258 266 286 278 281 272 274 290 294 307 279 344 283 198 269 219 193 314 230 178 227 339 3 340 50 81 68 77 75 47 36 26 26
272 274 268 262 229 220 215 211 214 223 221 216 225 230 236 247 263 285 281 288 296 286 297 259 267 248 259 237 218 285 232 338 317 317 326 347 258 294 198 254 205 128 98 124 194 107 98 91 82 67 57 46 35 30
261 268 266 250 224 217 216 213 214 223 218 218 230 237 237 244 244 284 293 282 279 291 280 171 307 281 218 217 204 241 284 296 292 313 295 293 271 251 68 59 286 34 169 112 97 117 115 91 75 62 50 41 28 17
255 259 263 254 236 218 215 219 221 210 211 221 230 230 234 239 243 268 306 278 248 251 320 303 298 242 222 199 212 229 250 282 267 244 228 268 320 246 85 271 120 216 122 148 82 94 74 92 91 75 57 32 9 352
250 251 254 255 243 229 217 214 217 220 214 224 224 228 233 236 228 258 313 339 239 223 291 281 331 208 189 182 195 209 263 266 245 261 225 149 218 288 214 160 77 95 85 63 115 98 102 104 74 50 34 15 5 359
243 244 246 248 251 236 217 209 210 207 212 220 220 227 232 239 221 196 222 320 349 202 265 279 217 185 182 186 208 232 252 241 255 221 214 214 161 258 219 181 136 119 107 95 112 126 119 110 68 10 9 11 11 24
241 238 238 237 240 233 216 203 208 213 202 209 210 219 225 237 238 223 252 289 260 246 256 270 244 197 187 199 208 203 212 202 192 250 200 233 171 234 231 113 129 113 121 117 106 123 129 149 336 330 333 351 26 38
236 230 230 225 225 229 216 200 202 198 192 196 199 204 197 220 222 214 243 281 242 211 293 249 260 181 175 188 169 176 217 207 127 220 158 227 185 222 92 140 117 93 169 154 38 231 216 233 276 334 245 259 328 359
228 228 227 226 223 220 217 192 189 187 182 183 167 148 173 205 173 113 211 234 193 205 230 258 259 217 189 180 177 181 205 179 197 113 160 243 133 104 130 119 99 93 161 187 228 162 179 214 289 277 266 311 72 15
232 231 228 218 212 209 187 178 183 175 173 161 148 153 151 150 136 215 222 216 191 221 213 235 242 223 200 197 168 229 193 173 221 136 250 189 178 155 154 127 106 103 117 134 144 142 304 277 259 218 177 163 101 4
236 232 225 214 198 179 184 180 185 184 174 164 147 130 135 168 198 221 209 203 215 228 180 202 206 218 159 201 201 183 215 197 209 145 230 227 101 147 158 146 128 120 127 122 114 123 161 159 145 154 156 152 120 35
233 231 218 201 188 181 184 186 188 191 180 140 125 163 183 179 217 220 200 192 200 191 186 179 174 166 161 198 181 196 206 190 136 207 220 49 141 160 166 172 168 152 147 144 145 151 174 170 145 176 168 119 76 13
236 233 219 198 189 181 186 190 181 175 162 151 166 185 216 190 223 207 224 197 194 198 180 181 158 179 154 176 176 203 70 186 219 229 202 141 166 163 166 169 174 174 182 177 176 176 175 166 173 147 149 141 345 357
230 226 216 198 190 184 194 185 187 171 153 167 210 221 211 226 232 212 224 247 240 186 171 164 148 185 155 158 204 131 182 218 227 232 111 147 161 165 168 162 165 163 149 141 162 231 211 196 213 170 137 130 44 25
224 213 207 191 190 184 192 186 177 171 189 225 231 240 222 222 233 225 219 223 209 184 178 191 166 192 187 202 193 199 202 212 153 139 135 152 162 171 171 168 161 170 163 210 214 248 260 239 221 186 165 147 97 44
202 198 198 183 182 187 189 173 169 179 211 225 225 224 250 266 248 237 199 214 187 182 191 179 189 171 123 206 196 226 225 97 133 142 153 164 167 165 159 156 170 181 219 280 276 254 233 213 171 154 153 143 121 80
212 198 179 177 168 179 166 173 162 208 231 229 232 214 225 242 251 229 206 191 174 192 190 169 134 192 192 189 172 138 137 133 138 150 153 161 161 155 157 181 193 230 287 276 253 231 216 205 191 187 180 185 175 132
170 165 168 168 168 156 127 172 209 243 218 204 212 213 260 252 235 231 196 174 182 179 142 149 129 172 143 118 122 135 148 153 149 153 160 162 166 173 190 201 218 262 291 273 242 218 210 195 210 192 188 191 184 173
141 151 160 166 167 143 147 195 207 248 207 160 187 216 232 219 169 163 157 153 157 158 114 100 78 84 98 114 115 135 143 148 152 158 171 192 203 209 218 221 238 252 286 262 243 221 211 199 220 195 192 194 187 177
129 144 157 160 172 207 219 180 200 226 115 128 151 148 140 148 140 133 122 137 109 69 101 101 106 100 106 112 114 113 115 122 157 221 198 211 217 215 226 236 246 260 262 251 229 216 205 211 204 196 192 189 190 181
139 155 160 185 206 219 219 209 198 123 160 138 138 174 142 111 96 69 87 99 88 84 99 118 118 125 118 104 112 102 143 133 203 238 237 218 221 225 232 241 249 247 241 245 233 220 207 197 183 170 180 190 173 182
161 163 165 222 252 25 58 16 119 199 181 147 115 80 70 79 67 97 88 85 96 96 105 113 116 108 122 128 137 150 164 260 277 269 250 231 230 229 232 231 229 238 244 239 235 207 187 182 169 157 169 166 177 189
174 194 277 58 21 75 146 306 306 34 67 72 69 80 68 72 96 102 97 101 121 125 128 126 120 119 124 140 183 228 271 278 276 270 251 233 231 231 237 248 245 250 243 226 208 190 172 168 177 173 181 193 198 210
121 41 30 51 76 201 205 97 67 68 74 77 83 83 78 71 94 90 106 119 147 150 146 142 131 111 68 64 1 294 298 261 265 256 242 210 208 217 210 197 152 169 157 173 164 153 160 170 186 203 215 236 247 247
89 59 32 43 49 10 28 65 61 73 80 71 69 86 121 102 76 97 93 87 117 125 96 73 75 9 345 340 324 310 170 150 137 113 152 170 163 144 137 146 143 140 149 147 157 175 194 203 210 227 240 252 255 250
45 47 50 48 72 86 89 77 80 81 78 88 94 100 101 81 86 86 109 74 82 79 80 65 7 330 328 323 303 187 170 167 132 105 114 134 151 170 161 176 203 210 203 217 225 231 241 240 246 245 247 256 264 253
43 41 64 66 80 80 85 72 64 53 65 36 171 51 61 44 69 80 96 85 62 26 351 325 319 318 322 298 256 213 196 196 192 189 207 218 218 217 232 239 252 243 245 244 246 248 253 255 256 252 256 264 280 264
53 48 80 69 68 60 41 46 62 56 28 21 74 66 79 76 83 84 52 351 319 312 298 296 296 310 316 310 271 234 210 221 243 245 236 238 174 249 282 271 267 261 261 271 269 254 251 247 250 259 265 270 274 267
38 29 73 51 50 59 49 54 69 59 55 63 88 105 104 92 54 21 350 325 310 288 289 281 277 280 293 294 303 203 209 231 250 289 302 321 309 308 289 284 286 275 263 260 263 264 258 253 252 254 259 261 262 262
43 58 69 75 75 68 68 73 73 73 80 84 76 81 80 89 45 41 32 25 19 18 29 49 43 31 8 3 14 14 350 263 307 306 300 305 315 314 312 289 302 297 284 260 262 269 270 270 269 267 264 262 261 258
48 61 104 99 99 84 64 55 64 77 78 72 62 80 75 77 75 58 47 53 58 65 82 89 66 49 34 34 9 316 313 288 294 308 304 316 317 292 286 291 262 273 293 291 283 281 279 279 284 287 282 272 267 263
94 94 99 105 88 52 35 74 80 93 82 88 97 95 88 83 89 54 30 20 18 14 17 13 3 352 342 348 336 334 323 320 303 298 290 291 284 291 294 288 283 292 289 290 293 282 278 276 278 283 288 285 279 270